Weather reports worldwide

Advertisment
Cervia, Italy (16148): temperature & dewpoint: 15.05.2019 05:00:00 - 21.05.2019 05:00:00 (CEST)Cervia, Italy (16148): wind speed: 15.05.2019 05:00:00 - 21.05.2019 05:00:00 (CEST)Cervia, Italy (16148): wind direction: 15.05.2019 05:00:00 - 21.05.2019 05:00:00 (CEST)Cervia, Italy (16148): reduced air pressure: 15.05.2019 05:00:00 - 21.05.2019 05:00:00 (CEST)Cervia, Italy (16148): visibility: 15.05.2019 05:00:00 - 21.05.2019 05:00:00 (CEST)Cervia, Italy (16148): sunshine duration: 15.05.2019 05:00:00 - 21.05.2019 05:00:00 (CEST)
Date & Time tt [°C] td [°C] ff [km/h] ff [kn] dd ppp [hPa] vv [km] sd [min]
21.05.2019 05:00:00 13,2 12,4 9 5 WSW 1007,9 16 -
21.05.2019 04:00:00 13,0 12,0 4 2 SW - 10 -
21.05.2019 03:00:00 13,0 11,0 11 6 S - 10 -
21.05.2019 02:00:00 13,0 10,7 11 6 S 1008,4 16 -
21.05.2019 01:00:00 13,0 11,0 9 5 SSW - 10 -
21.05.2019 00:00:00 13,0 11,0 4 2 S - 10 -
20.05.2019 23:00:00 13,0 10,9 2 1 N 1008,1 16 -
20.05.2019 22:00:00 14,0 11,0 4 2 S - 10 -
20.05.2019 21:00:00 15,0 11,0 11 6 W - 10 -
20.05.2019 20:00:00 18,0 11,6 11 6 SSW 1006,6 20 24
20.05.2019 19:00:00 19,0 13,0 13 7 S - 10 -
20.05.2019 18:00:00 19,0 13,0 9 5 SE - 10 -
20.05.2019 17:00:00 18,0 14,5 13 7 SE 1006,5 15 12
20.05.2019 16:00:00 18,0 12,0 16 9 ESE - 10 -
20.05.2019 15:00:00 18,0 13,0 13 7 E - 10 -
20.05.2019 14:00:00 19,8 12,3 11 6 ENE 1006,3 20 18
20.05.2019 13:00:00 20,0 9,0 5 3 SSW - 10 -
20.05.2019 12:00:00 19,0 10,0 16 9 WSW - 10 -
20.05.2019 11:00:00 18,0 10,9 18 10 WSW 1006,2 20 36
20.05.2019 10:00:00 17,0 11,0 8 4 SSW - 10 -
20.05.2019 09:00:00 15,0 12,0 8 4 SSW - 10 -
20.05.2019 08:00:00 13,4 11,5 5 3 SSW 1005,0 15 0
20.05.2019 07:00:00 12,0 10,0 8 4 SSW - 10 -
20.05.2019 06:00:00 12,0 11,0 9 5 WSW - 10 -
20.05.2019 05:00:00 12,3 10,7 8 4 SW 1004,7 10 -
20.05.2019 04:00:00 12,0 11,0 8 4 SW - 10 -
20.05.2019 03:00:00 13,0 11,0 5 3 SSW - 10 -
20.05.2019 02:00:00 13,0 11,6 5 3 W 1005,0 10 -
20.05.2019 01:00:00 13,0 12,0 8 4 SW - 10 -
20.05.2019 00:00:00 14,0 12,0 5 3 SSW - 10 -
19.05.2019 23:00:00 14,0 12,7 5 3 SSW 1004,7 10 -
19.05.2019 22:00:00 14,0 13,0 5 3 SSW - 10 -
19.05.2019 21:00:00 14,0 13,0 5 3 SSW - 10 -
19.05.2019 20:00:00 14,8 13,7 8 4 SSW 1004,5 10 0
19.05.2019 19:00:00 15,0 13,0 9 5 SW - 10 -
19.05.2019 18:00:00 15,0 13,0 2 1 - - 10 -
19.05.2019 17:00:00 13,8 12,2 8 4 NNW 1004,5 10 0
19.05.2019 16:00:00 14,0 12,0 11 6 WNW - 7 -
19.05.2019 15:00:00 16,0 14,0 9 5 NE - 10 -
19.05.2019 14:00:00 17,0 14,7 13 7 NE 1003,7 10 0
19.05.2019 13:00:00 16,0 14,0 9 5 ENE - 10 -
19.05.2019 12:00:00 17,0 14,0 4 2 - - 10 -
19.05.2019 11:00:00 16,0 14,0 4 2 - 1004,2 10 0
19.05.2019 10:00:00 15,0 13,0 4 2 - - 10 -
19.05.2019 09:00:00 14,0 12,0 8 4 NW - 10 -
19.05.2019 08:00:00 14,0 11,9 9 5 W 1004,2 6 18
19.05.2019 07:00:00 13,0 11,0 2 1 SW - 2,0 -
19.05.2019 06:00:00 13,0 11,0 9 5 WNW - 2,0 -
19.05.2019 05:00:00 13,0 11,4 8 4 W 1005,2 2,0 -
19.05.2019 04:00:00 13,0 11,0 9 5 W - 1,8 -
19.05.2019 03:00:00 13,0 12,0 5 3 S - 1,0 -
19.05.2019 02:00:00 13,2 11,9 4 2 WNW 1005,6 4,0 -
19.05.2019 01:00:00 14,0 13,0 5 3 ENE - 10 -
19.05.2019 00:00:00 14,0 13,0 5 3 S - 10 -
18.05.2019 23:00:00 14,2 12,8 8 4 SE 1005,8 10 -
18.05.2019 22:00:00 14,0 13,0 9 5 SE - 10 -
18.05.2019 21:00:00 15,0 13,0 9 5 SSE - 10 -
18.05.2019 20:00:00 15,1 13,7 15 8 ESE 1005,3 12 0
18.05.2019 19:00:00 16,0 14,0 15 8 E - 8 -
18.05.2019 18:00:00 15,0 14,0 8 4 S - 4,0 -
18.05.2019 17:00:00 16,0 14,5 13 7 ENE 1004,6 12 0
18.05.2019 16:00:00 15,0 13,0 11 6 NE - 10 -
18.05.2019 15:00:00 16,0 13,0 11 6 E - 10 -
18.05.2019 14:00:00 17,6 15,2 16 9 E 1005,0 12 0
18.05.2019 13:00:00 17,0 15,0 11 6 E - 10 -
18.05.2019 12:00:00 16,0 15,0 8 4 ENE - 10 -
18.05.2019 11:00:00 14,0 12,6 4 2 ENE 1005,3 8 0
18.05.2019 10:00:00 15,0 14,0 22 12 ENE - 10 -
18.05.2019 09:00:00 14,0 13,0 16 9 NNE - 10 -
18.05.2019 08:00:00 13,4 12,0 16 9 NNE 1005,9 10 0
18.05.2019 07:00:00 14,0 12,0 16 9 ENE - 10 -
18.05.2019 06:00:00 14,0 12,0 13 7 E - 10 -
18.05.2019 05:00:00 13,4 12,0 13 7 ENE 1006,3 10 -
18.05.2019 04:00:00 13,0 12,0 11 6 ENE - 10 -
18.05.2019 03:00:00 14,0 13,0 13 7 E - 10 -
18.05.2019 02:00:00 14,0 13,2 11 6 E 1007,9 10 -
18.05.2019 01:00:00 15,0 14,0 15 8 ESE - 10 -
18.05.2019 00:00:00 15,0 14,0 13 7 ESE - 10 -
17.05.2019 23:00:00 14,8 13,5 13 7 ESE 1008,4 10 -
17.05.2019 22:00:00 15,0 13,0 13 7 ESE - 10 -
17.05.2019 21:00:00 15,0 13,0 15 8 ESE - 10 -
17.05.2019 20:00:00 15,4 13,1 16 9 E 1008,3 20 6
17.05.2019 19:00:00 16,0 13,0 18 10 E - 10 -
17.05.2019 18:00:00 16,0 13,0 21 11 E - 10 -
17.05.2019 17:00:00 16,4 13,0 22 12 E 1009,3 20 42
17.05.2019 16:00:00 17,0 14,0 21 11 E - 10 -
17.05.2019 15:00:00 17,0 13,0 18 10 E - 10 -
17.05.2019 14:00:00 16,8 13,0 22 12 E 1010,1 20 60
17.05.2019 13:00:00 17,0 13,0 18 10 ENE - 10 -
17.05.2019 12:00:00 16,0 13,0 16 9 ENE - 10 -
17.05.2019 11:00:00 15,0 12,1 15 8 ENE 1010,5 20 30
17.05.2019 10:00:00 15,0 11,0 13 7 E - 10 -
17.05.2019 09:00:00 12,0 9,0 4 2 ESE - 10 -
17.05.2019 08:00:00 9,8 8,6 4 2 WSW 1010,7 20 48
17.05.2019 07:00:00 8,0 7,0 5 3 WSW - 10 -
17.05.2019 06:00:00 6,0 5,0 4 2 WNW - 10 -
17.05.2019 05:00:00 6,3 5,1 4 2 WSW 1010,1 15 -
17.05.2019 04:00:00 7,0 6,0 2 1 W - 10 -
17.05.2019 03:00:00 8,0 7,0 4 2 W - 10 -
17.05.2019 02:00:00 8,2 7,0 4 2 WSW 1011,3 15 -
17.05.2019 01:00:00 9,0 8,0 5 3 WSW - 10 -
17.05.2019 00:00:00 11,0 10,0 5 3 S - 10 -
16.05.2019 23:00:00 12,4 9,2 8 4 E 1011,6 20 -
16.05.2019 22:00:00 13,0 10,0 5 3 E - 10 -
16.05.2019 21:00:00 13,0 9,0 9 5 E - 10 -
16.05.2019 20:00:00 15,4 8,2 5 3 ESE 1011,1 20 30
16.05.2019 19:00:00 16,0 9,0 5 3 ENE - 10 -
16.05.2019 18:00:00 16,0 8,0 8 4 E - 10 -
16.05.2019 17:00:00 16,2 7,7 8 4 ENE 1011,6 20 60
16.05.2019 16:00:00 16,0 8,0 9 5 NE - 10 -
16.05.2019 15:00:00 16,0 8,0 13 7 ENE - 10 -
16.05.2019 14:00:00 16,0 8,0 15 8 NE 1013,1 20 42
16.05.2019 13:00:00 16,0 8,0 11 6 NNE - 10 -
16.05.2019 12:00:00 16,0 10,0 8 4 NNW - 10 -
16.05.2019 11:00:00 15,6 9,9 9 5 WNW 1013,6 20 48
16.05.2019 10:00:00 14,0 9,0 13 7 WNW - 10 -
16.05.2019 09:00:00 12,0 8,0 16 9 WNW - 10 -
16.05.2019 08:00:00 10,4 7,5 13 7 W 1013,7 20 24
16.05.2019 07:00:00 8,0 6,0 8 4 W - 10 -
16.05.2019 06:00:00 7,0 5,0 9 5 WSW - 10 -
16.05.2019 05:00:00 6,8 5,3 9 5 WSW 1013,5 10 -
16.05.2019 04:00:00 7,0 6,0 11 6 WSW - 10 -
16.05.2019 03:00:00 6,0 5,0 11 6 W - 10 -
16.05.2019 02:00:00 6,4 5,2 11 6 W 1014,8 10 -
16.05.2019 01:00:00 7,0 6,0 11 6 W - 10 -
16.05.2019 00:00:00 8,0 7,0 9 5 W - 10 -
15.05.2019 23:00:00 8,0 6,8 8 4 WSW 1014,7 10 -
15.05.2019 22:00:00 8,0 7,0 8 4 W - 10 -
15.05.2019 21:00:00 10,0 8,0 4 2 W - 10 -
15.05.2019 20:00:00 12,0 7,3 8 4 NE 1014,1 20 60
15.05.2019 19:00:00 13,0 7,0 9 5 NE - 10 -
15.05.2019 18:00:00 13,0 7,0 13 7 NNE - 10 -
15.05.2019 17:00:00 13,0 7,0 13 7 NE 1014,1 15 48
15.05.2019 16:00:00 13,0 9,0 16 9 NE - 10 -
15.05.2019 15:00:00 13,0 9,0 15 8 NE - 10 -
15.05.2019 14:00:00 9,3 7,4 4 2 WSW 1014,5 10 0
15.05.2019 13:00:00 9,0 8,0 2 1 NNW - 7 -
15.05.2019 12:00:00 9,0 7,0 18 10 W - 8 -
15.05.2019 11:00:00 7,6 5,9 13 7 WSW 1014,3 1,9 0
15.05.2019 10:00:00 8,0 6,0 15 8 WNW - 4,0 -
15.05.2019 09:00:00 7,0 6,0 21 11 WNW - 3,0 -
15.05.2019 08:00:00 7,0 6,0 11 6 W 1014,8 2,0 0
15.05.2019 07:00:00 7,0 6,0 9 5 W - 5 -
15.05.2019 06:00:00 7,0 6,0 9 5 WNW - 6 -
15.05.2019 05:00:00 7,3 6,2 16 9 NW 1015,1 10 -

tt = temperature
td = dewpoint
ff = wind speed
dd = wind direction
ppp = reduced air pressure
vv = visibility
sd = sunshine duration

Next stations